FENGYUN 1C DEB

Satellite information

Favourite Embed

Satellite Type and Status

DEBRISIN ORBIT

Key statistics

Satellite FENGYUN 1C DEB at a glance.

Uptime

9553

Days in orbit

Revolutions

≈ 14.4

Per day

Orbit

SSO

Sun Synchronous Orbit

Inclination

99.0

Latest

Satellite identification and parameters

Extended collection of information and parameters for FENGYUN 1C DEB.

Object identification

Identified? True

Debris? True

Object name: FENGYUN 1C DEB

International designator: 1999-025BJY

Object number (NORAD): 31194

Object ID (CCSDS): 31194

Country: PEOPLES REPUBLIC OF CHINA (PRC)

Current information (Y/N): Y

RCS size: SMALL

Orbital parameters

Period: 100.305 minutes

Inclination: 98.98 deg

SMA: 7151.133 km

Apoapsis: 816.013 km

Periapsis: 729.984 km

RAAN: 67.1292 deg

Eccentricy: 0.0060151

Argument of periapsis: 34.6481 deg

Mean anomaly: 325.8599 deg

Mean motion: 14.35623151 rev/day

Mean motion (dot): 0.00001651 rev/day2

B* drag term: 0.00057701 1/REarth

Two-line elements (TLE)

Creation date: July 3, 2025, 5:26 p.m.

Reference frame: TEME

Reference center: EARTH

Epoch: July 3, 2025, 2:43 p.m. UTC

TLE line 0: 0 FENGYUN 1C DEB

TLE line 1: 1 31194U 99025BJY 25184.61381858 .00001651 00000-0 57701-3 0 9999

TLE line 2: 2 31194 98.9800 67.1292 0060151 34.6481 325.8599 14.35623151948003

Live tracking on map

Real-time ground track for satellite FENGYUN 1C DEB.

In-orbit conjunctions

A list of the most updated potential collisions computed for object FENGYUN 1C DEB.

Target Orbit TCA Probability of collision Miss distance Type
COSMOS 2251 LEO 2025-06-01 06:04:01 0.003398065 138.0 (m) PAYLOAD
IRIDIUM 47 DEB LEO 2025-05-09 07:27:09 0.0002965871 18.0 (m) DEBRIS
CZ-6A DEB LEO 2025-03-01 22:20:23 0.0002463125 991.0 (m) DEBRIS
FALCONSAT SSO 2024-11-15 23:47:06 0.0001169245 932.0 (m) PAYLOAD
CZ-6A DEB LEO 2024-09-19 11:06:23 0.0004033718 118.0 (m) DEBRIS

Associated space launch

Chinese polar orbiting meteorological satellite

FENGYUN 1C DEB was lifted into orbit during the mission ‘Long March 4B | Feng Yun 1C’, on board a Long March 4B space rocket.

The launch took place on May 10, 1999, 1:33 a.m. from Launch Complex 7.

For more information about the launch, click the button.

Launch to space Long March 4B | Feng Yun 1C
Long March 4B | Feng Yun 1C

Agency: N/A

Status: Launch Successful

Launch date: May 10, 1999, 1:33 a.m. UTC

Rocket: Long March 4B

Launch pad: Launch Complex 7

Location: Taiyuan Satellite Launch Center, People's Republic of China

...

Latest news about this satellite

There are no fresh news available about this satellite. Check back as we update our databases every day.


Newsletter sign-up

Weekly statistics, charts and insights to help you stay on top of the space industry.